Location: Kershaw
(34.5481°N, 80.5823°W)
Time: 04:30:00
(UTC+00:00)

Tiros 1 despin weight - Pass Details

Date: 07 October 2022
Orbit: 590 x 637 km, 48.2° (Epoch: 30 November)

Event Time Altitude Azimuth Distance (km) Brightness Sun altitude
Rises 03:34:08 0° 289° (WNW) 2,905 - -53.4°
Reaches altitude 10° 03:37:10 10° 269° (W) 2,003 - -53.8°
Maximum altitude 03:40:03 16° 230° (SW) 1,623 - -54.2°
Drops below altitude 10° 03:42:56 10° 191° (SSW) 2,008 - -54.6°
Sets 03:46:00 0° 171° (S) 2,916 - -55.0°
